Year,Month,Day,Hour,Minute,Value (Times are PST for temperature in C)
2010,12,14,00,00,7.00
2010,12,14,00,01,7.00
2010,12,14,00,02,7.10
2010,12,14,00,03,7.10
2010,12,14,00,04,7.10
2010,12,14,00,05,7.10
2010,12,14,00,06,7.10
2010,12,14,00,07,7.20
2010,12,14,00,08,7.20
2010,12,14,00,09,7.20
2010,12,14,00,10,7.20
2010,12,14,00,11,7.20
2010,12,14,00,12,7.30
2010,12,14,00,13,7.30
2010,12,14,00,14,7.40
2010,12,14,00,15,7.50
2010,12,14,00,16,7.60
2010,12,14,00,17,7.60
2010,12,14,00,18,7.60
2010,12,14,00,19,7.60
2010,12,14,00,20,7.70
2010,12,14,00,21,7.70
2010,12,14,00,22,7.70
2010,12,14,00,23,7.70
2010,12,14,00,24,7.70
2010,12,14,00,25,7.60
2010,12,14,00,26,7.60
2010,12,14,00,27,7.60
2010,12,14,00,28,7.60
2010,12,14,00,29,7.60
2010,12,14,00,30,7.50
2010,12,14,00,31,7.50
2010,12,14,00,32,7.50
2010,12,14,00,33,7.40
2010,12,14,00,34,7.30
2010,12,14,00,35,7.30
2010,12,14,00,36,7.20
2010,12,14,00,37,7.20
2010,12,14,00,38,7.20
2010,12,14,00,39,7.00
2010,12,14,00,40,7.00
2010,12,14,00,41,7.00
2010,12,14,00,42,7.00
2010,12,14,00,43,7.00
2010,12,14,00,44,6.90
2010,12,14,00,45,6.90
2010,12,14,00,46,6.80
2010,12,14,00,47,6.80
2010,12,14,00,48,6.70
2010,12,14,00,49,6.70
2010,12,14,00,50,6.60
2010,12,14,00,51,6.60
2010,12,14,00,52,6.60
2010,12,14,00,53,6.60
2010,12,14,00,54,6.60
2010,12,14,00,55,6.50
2010,12,14,00,56,6.50
2010,12,14,00,57,6.40
2010,12,14,00,58,6.40
2010,12,14,00,59,6.40
2010,12,14,01,00,6.40
2010,12,14,01,01,6.40
2010,12,14,01,02,6.40
2010,12,14,01,03,6.40
2010,12,14,01,04,6.40
2010,12,14,01,05,6.30
2010,12,14,01,06,6.30
2010,12,14,01,07,6.30
2010,12,14,01,08,6.30
2010,12,14,01,09,6.30
2010,12,14,01,10,6.20
2010,12,14,01,11,6.10
2010,12,14,01,12,6.10
2010,12,14,01,13,6.10
2010,12,14,01,14,6.00
2010,12,14,01,15,5.90
2010,12,14,01,16,5.90
2010,12,14,01,17,5.80
2010,12,14,01,18,5.80
2010,12,14,01,19,5.80
2010,12,14,01,20,5.70
2010,12,14,01,21,5.70
2010,12,14,01,22,5.60
2010,12,14,01,23,5.60
2010,12,14,01,24,5.50
2010,12,14,01,25,5.50
2010,12,14,01,26,5.40
2010,12,14,01,27,5.40
2010,12,14,01,28,5.30
2010,12,14,01,29,5.30
2010,12,14,01,30,5.30
2010,12,14,01,31,5.30
2010,12,14,01,32,5.40
2010,12,14,01,33,5.40
2010,12,14,01,34,5.40
2010,12,14,01,35,5.40
2010,12,14,01,36,5.40
2010,12,14,01,37,5.40
2010,12,14,01,38,5.40
2010,12,14,01,39,5.30
2010,12,14,01,40,5.30
2010,12,14,01,41,5.30
2010,12,14,01,42,5.30
2010,12,14,01,43,5.20
2010,12,14,01,44,5.20
2010,12,14,01,45,5.10
2010,12,14,01,46,5.10
2010,12,14,01,47,5.10
2010,12,14,01,48,5.10
2010,12,14,01,49,5.20
2010,12,14,01,50,5.20
2010,12,14,01,51,5.30
2010,12,14,01,52,5.30
2010,12,14,01,53,5.40
2010,12,14,01,54,5.40
2010,12,14,01,55,5.40
2010,12,14,01,56,5.30
2010,12,14,01,57,5.30
2010,12,14,01,58,5.30
2010,12,14,01,59,5.20
2010,12,14,02,00,5.30
2010,12,14,02,01,5.20
2010,12,14,02,02,5.20
2010,12,14,02,03,5.20
2010,12,14,02,04,5.20
2010,12,14,02,05,5.30
2010,12,14,02,06,5.30
2010,12,14,02,07,5.30
2010,12,14,02,08,5.30
2010,12,14,02,09,5.30
2010,12,14,02,10,5.20
2010,12,14,02,11,5.20
2010,12,14,02,12,5.20
2010,12,14,02,13,5.20
2010,12,14,02,14,5.10
2010,12,14,02,15,5.10
2010,12,14,02,16,5.00
2010,12,14,02,17,4.90
2010,12,14,02,18,4.80
2010,12,14,02,19,4.70
2010,12,14,02,20,4.70
2010,12,14,02,21,4.60
2010,12,14,02,22,4.50
2010,12,14,02,23,4.50
2010,12,14,02,24,4.40
2010,12,14,02,25,4.40
2010,12,14,02,26,4.40
2010,12,14,02,27,4.40
2010,12,14,02,28,4.50
2010,12,14,02,29,4.60
2010,12,14,02,30,4.60
2010,12,14,02,31,4.50
2010,12,14,02,32,4.40
2010,12,14,02,33,4.40
2010,12,14,02,34,4.40
2010,12,14,02,35,4.40
2010,12,14,02,36,4.30
2010,12,14,02,37,4.30
2010,12,14,02,38,4.30
2010,12,14,02,39,4.30
2010,12,14,02,40,4.30
2010,12,14,02,41,4.30
2010,12,14,02,42,4.30
2010,12,14,02,43,4.30
2010,12,14,02,44,4.30
2010,12,14,02,45,4.40
2010,12,14,02,46,4.40
2010,12,14,02,47,4.40
2010,12,14,02,48,4.50
2010,12,14,02,49,4.50
2010,12,14,02,50,4.50
2010,12,14,02,51,4.50
2010,12,14,02,52,4.60
2010,12,14,02,53,4.70
2010,12,14,02,54,4.70
2010,12,14,02,55,4.70
2010,12,14,02,56,4.70
2010,12,14,02,57,4.80
2010,12,14,02,58,4.80
2010,12,14,02,59,4.90
2010,12,14,03,00,4.90
2010,12,14,03,01,5.00
2010,12,14,03,02,5.10
2010,12,14,03,03,5.10
2010,12,14,03,04,5.10
2010,12,14,03,05,5.00
2010,12,14,03,06,5.00
2010,12,14,03,07,4.90
2010,12,14,03,08,4.90
2010,12,14,03,09,4.90
2010,12,14,03,10,4.90
2010,12,14,03,11,5.00
2010,12,14,03,12,5.00
2010,12,14,03,13,5.00
2010,12,14,03,14,5.00
2010,12,14,03,15,4.90
2010,12,14,03,16,4.80
2010,12,14,03,17,4.70
2010,12,14,03,18,4.60
2010,12,14,03,19,4.40
2010,12,14,03,20,4.30
2010,12,14,03,21,4.10
2010,12,14,03,22,4.00
2010,12,14,03,23,4.00
2010,12,14,03,24,4.00
2010,12,14,03,25,4.10
2010,12,14,03,26,4.30
2010,12,14,03,27,4.40
2010,12,14,03,28,4.50
2010,12,14,03,29,4.60
2010,12,14,03,30,4.60
2010,12,14,03,31,4.60
2010,12,14,03,32,4.70
2010,12,14,03,33,4.70
2010,12,14,03,34,4.70
2010,12,14,03,35,4.60
2010,12,14,03,36,4.60
2010,12,14,03,37,4.50
2010,12,14,03,38,4.30
2010,12,14,03,39,4.20
2010,12,14,03,40,4.00
2010,12,14,03,41,3.90
2010,12,14,03,42,3.80
2010,12,14,03,43,3.80
2010,12,14,03,44,3.70
2010,12,14,03,45,3.70
2010,12,14,03,46,3.70
2010,12,14,03,47,3.70
2010,12,14,03,48,3.80
2010,12,14,03,49,3.80
2010,12,14,03,50,3.80
2010,12,14,03,51,3.80
2010,12,14,03,52,3.90
2010,12,14,03,53,3.80
2010,12,14,03,54,3.80
2010,12,14,03,55,3.80
2010,12,14,03,56,3.70
2010,12,14,03,57,3.70
2010,12,14,03,58,3.70
2010,12,14,03,59,3.70
2010,12,14,04,00,3.70
2010,12,14,04,01,3.60
2010,12,14,04,02,3.60
2010,12,14,04,03,3.60
2010,12,14,04,04,3.60
2010,12,14,04,05,3.70
2010,12,14,04,06,3.70
2010,12,14,04,07,3.80
2010,12,14,04,08,4.10
2010,12,14,04,09,4.50
2010,12,14,04,10,4.90
2010,12,14,04,11,5.20
2010,12,14,04,12,5.20
2010,12,14,04,13,5.10
2010,12,14,04,14,5.00
2010,12,14,04,15,4.80
2010,12,14,04,16,4.70
2010,12,14,04,17,4.50
2010,12,14,04,18,4.40
2010,12,14,04,19,4.20
2010,12,14,04,20,4.20
2010,12,14,04,21,4.20
2010,12,14,04,22,4.20
2010,12,14,04,23,4.10
2010,12,14,04,24,4.10
2010,12,14,04,25,4.00
2010,12,14,04,26,4.00
2010,12,14,04,27,3.90
2010,12,14,04,28,3.90
2010,12,14,04,29,3.90
2010,12,14,04,30,3.80
2010,12,14,04,31,3.80
2010,12,14,04,32,3.70
2010,12,14,04,33,3.70
2010,12,14,04,34,3.70
2010,12,14,04,35,3.60
2010,12,14,04,36,3.60
2010,12,14,04,37,3.60
2010,12,14,04,38,3.60
2010,12,14,04,39,3.60
2010,12,14,04,40,3.60
2010,12,14,04,41,3.50
2010,12,14,04,42,3.50
2010,12,14,04,43,3.50
2010,12,14,04,44,3.50
2010,12,14,04,45,3.40
2010,12,14,04,46,3.40
2010,12,14,04,47,3.50
2010,12,14,04,48,3.50
2010,12,14,04,49,3.40
2010,12,14,04,50,3.40
2010,12,14,04,51,3.30
2010,12,14,04,52,3.30
2010,12,14,04,53,3.20
2010,12,14,04,54,3.20
2010,12,14,04,55,3.10
2010,12,14,04,56,3.10
2010,12,14,04,57,3.10
2010,12,14,04,58,3.00
2010,12,14,04,59,3.00
2010,12,14,05,00,3.00
2010,12,14,05,01,3.00
2010,12,14,05,02,3.00
2010,12,14,05,03,3.00
2010,12,14,05,04,2.90
2010,12,14,05,05,2.90
2010,12,14,05,06,2.90
2010,12,14,05,07,2.90
2010,12,14,05,08,2.80
2010,12,14,05,09,2.80
2010,12,14,05,10,2.80
2010,12,14,05,11,2.80
2010,12,14,05,12,2.70
2010,12,14,05,13,2.70
2010,12,14,05,14,2.70
2010,12,14,05,15,2.70
2010,12,14,05,16,2.70
2010,12,14,05,17,2.70
2010,12,14,05,18,2.70
2010,12,14,05,19,2.70
2010,12,14,05,20,2.70
2010,12,14,05,21,2.60
2010,12,14,05,22,2.60
2010,12,14,05,23,2.60
2010,12,14,05,24,2.70
2010,12,14,05,25,2.70
2010,12,14,05,26,2.70
2010,12,14,05,27,2.70
2010,12,14,05,28,2.70
2010,12,14,05,29,2.70
2010,12,14,05,30,2.70
2010,12,14,05,31,2.70
2010,12,14,05,32,2.70
2010,12,14,05,33,2.70
2010,12,14,05,34,2.80
2010,12,14,05,35,2.80
2010,12,14,05,36,2.80
2010,12,14,05,37,2.80
2010,12,14,05,38,2.80
2010,12,14,05,39,2.80
2010,12,14,05,40,2.80
2010,12,14,05,41,2.80
2010,12,14,05,42,2.80
2010,12,14,05,43,2.80
2010,12,14,05,44,2.80
2010,12,14,05,45,2.80
2010,12,14,05,46,2.80
2010,12,14,05,47,2.80
2010,12,14,05,48,2.80
2010,12,14,05,49,2.80
2010,12,14,05,50,2.80
2010,12,14,05,51,2.70
2010,12,14,05,52,2.70
2010,12,14,05,53,2.70
2010,12,14,05,54,2.70
2010,12,14,05,55,2.70
2010,12,14,05,56,2.70
2010,12,14,05,57,2.60
2010,12,14,05,58,2.60
2010,12,14,05,59,2.60
2010,12,14,06,00,2.50
2010,12,14,06,01,2.50
2010,12,14,06,02,2.40
2010,12,14,06,03,2.40
2010,12,14,06,04,2.40
2010,12,14,06,05,2.40
2010,12,14,06,06,2.30
2010,12,14,06,07,2.30
2010,12,14,06,08,2.30
2010,12,14,06,09,2.20
2010,12,14,06,10,2.20
2010,12,14,06,11,2.20
2010,12,14,06,12,2.20
2010,12,14,06,13,2.20
2010,12,14,06,14,2.20
2010,12,14,06,15,2.10
2010,12,14,06,16,2.10
2010,12,14,06,17,2.10
2010,12,14,06,18,2.10
2010,12,14,06,19,2.10
2010,12,14,06,20,2.10
2010,12,14,06,21,2.10
2010,12,14,06,22,2.10
2010,12,14,06,23,2.10
2010,12,14,06,24,2.10
2010,12,14,06,25,2.10
2010,12,14,06,26,2.10
2010,12,14,06,27,2.10
2010,12,14,06,28,2.10
2010,12,14,06,29,2.20
2010,12,14,06,30,2.20
2010,12,14,06,31,2.20
2010,12,14,06,32,2.20
2010,12,14,06,33,2.20
2010,12,14,06,34,2.20
2010,12,14,06,35,2.20
2010,12,14,06,36,2.20
2010,12,14,06,37,2.20
2010,12,14,06,38,2.20
2010,12,14,06,39,2.20
2010,12,14,06,40,2.20
2010,12,14,06,41,2.20
2010,12,14,06,42,2.20
2010,12,14,06,43,2.20
2010,12,14,06,44,2.20
2010,12,14,06,45,2.20
2010,12,14,06,46,2.20
2010,12,14,06,47,2.20
2010,12,14,06,48,2.30
2010,12,14,06,49,2.30
2010,12,14,06,50,2.30
2010,12,14,06,51,2.40
2010,12,14,06,52,2.40
2010,12,14,06,53,2.40
2010,12,14,06,54,2.40
2010,12,14,06,55,2.40
2010,12,14,06,56,2.40
2010,12,14,06,57,2.30
2010,12,14,06,58,2.30
2010,12,14,06,59,2.30
2010,12,14,07,00,2.30
2010,12,14,07,01,2.30
2010,12,14,07,02,2.40
2010,12,14,07,03,2.40
2010,12,14,07,04,2.30
2010,12,14,07,05,2.30
2010,12,14,07,06,2.30
2010,12,14,07,07,2.30
2010,12,14,07,08,2.30
2010,12,14,07,09,2.30
2010,12,14,07,10,2.20
2010,12,14,07,11,2.20
2010,12,14,07,12,2.20
2010,12,14,07,13,2.20
2010,12,14,07,14,2.20
2010,12,14,07,15,2.20
2010,12,14,07,16,2.20
2010,12,14,07,17,2.20
2010,12,14,07,18,2.20
2010,12,14,07,19,2.20
2010,12,14,07,20,2.20
2010,12,14,07,21,2.20
2010,12,14,07,22,2.20
2010,12,14,07,23,2.20
2010,12,14,07,24,2.20
2010,12,14,07,25,2.20
2010,12,14,07,26,2.20
2010,12,14,07,27,2.20
2010,12,14,07,28,2.20
2010,12,14,07,29,2.20
2010,12,14,07,30,2.20
2010,12,14,07,31,2.20
2010,12,14,07,32,2.20
2010,12,14,07,33,2.20
2010,12,14,07,34,2.20
2010,12,14,07,35,2.20
2010,12,14,07,36,2.20
2010,12,14,07,37,2.20
2010,12,14,07,38,2.20
2010,12,14,07,39,2.20
2010,12,14,07,40,2.20
2010,12,14,07,41,2.20
2010,12,14,07,42,2.20
2010,12,14,07,43,2.20
2010,12,14,07,44,2.20
2010,12,14,07,45,2.20
2010,12,14,07,46,2.20
2010,12,14,07,47,2.20
2010,12,14,07,48,2.10
2010,12,14,07,49,2.10
2010,12,14,07,50,2.00
2010,12,14,07,51,2.00
2010,12,14,07,52,2.00
2010,12,14,07,53,1.90
2010,12,14,07,54,1.90
2010,12,14,07,55,1.90
2010,12,14,07,56,1.90
2010,12,14,07,57,1.90
2010,12,14,07,58,1.90
2010,12,14,07,59,1.80
2010,12,14,08,00,1.80
2010,12,14,08,01,1.80
2010,12,14,08,02,1.80
2010,12,14,08,03,1.80
2010,12,14,08,04,1.80
2010,12,14,08,05,1.80
2010,12,14,08,06,1.80
2010,12,14,08,07,1.80
2010,12,14,08,08,1.80
2010,12,14,08,09,1.90
2010,12,14,08,10,1.90
2010,12,14,08,11,1.90
2010,12,14,08,12,1.90
2010,12,14,08,13,2.00
2010,12,14,08,14,2.00
2010,12,14,08,15,2.00
2010,12,14,08,16,2.00
2010,12,14,08,17,2.10
2010,12,14,08,18,2.10
2010,12,14,08,19,2.10
2010,12,14,08,20,2.10
2010,12,14,08,21,2.10
2010,12,14,08,22,2.10
2010,12,14,08,23,2.10
2010,12,14,08,24,2.20
2010,12,14,08,25,2.20
2010,12,14,08,26,2.20
2010,12,14,08,27,2.20
2010,12,14,08,28,2.30
2010,12,14,08,29,2.30
2010,12,14,08,30,2.30
2010,12,14,08,31,2.30
2010,12,14,08,32,2.30
2010,12,14,08,33,2.30
2010,12,14,08,34,2.30
2010,12,14,08,35,2.30
2010,12,14,08,36,2.40
2010,12,14,08,37,2.40
2010,12,14,08,38,2.40
2010,12,14,08,39,2.30
2010,12,14,08,40,2.30
2010,12,14,08,41,2.30
2010,12,14,08,42,2.30
2010,12,14,08,43,2.30
2010,12,14,08,44,2.30
2010,12,14,08,45,2.30
2010,12,14,08,46,2.40
2010,12,14,08,47,2.40
2010,12,14,08,48,2.30
2010,12,14,08,49,2.30
2010,12,14,08,50,2.40
2010,12,14,08,51,2.40
2010,12,14,08,52,2.40
2010,12,14,08,53,2.30
2010,12,14,08,54,2.30
2010,12,14,08,55,2.20
2010,12,14,08,56,2.20
2010,12,14,08,57,2.10
2010,12,14,08,58,2.10
2010,12,14,08,59,2.10
2010,12,14,09,00,2.10
2010,12,14,09,01,2.10
2010,12,14,09,02,2.10
2010,12,14,09,03,2.10
2010,12,14,09,04,2.10
2010,12,14,09,05,2.20
2010,12,14,09,06,2.20
2010,12,14,09,07,2.20
2010,12,14,09,08,2.30
2010,12,14,09,09,2.30
2010,12,14,09,10,2.40
2010,12,14,09,11,2.40
2010,12,14,09,12,2.40
2010,12,14,09,13,2.50
2010,12,14,09,14,2.50
2010,12,14,09,15,2.60
2010,12,14,09,16,2.60
2010,12,14,09,17,2.60
2010,12,14,09,18,2.60
2010,12,14,09,19,2.70
2010,12,14,09,20,2.70
2010,12,14,09,21,2.70
2010,12,14,09,22,2.70
2010,12,14,09,23,2.70
2010,12,14,09,24,2.70
2010,12,14,09,25,2.60
2010,12,14,09,26,2.60
2010,12,14,09,27,2.60
2010,12,14,09,28,2.60
2010,12,14,09,29,2.60
2010,12,14,09,30,2.60
2010,12,14,09,31,2.60
2010,12,14,09,32,2.60
2010,12,14,09,33,2.60
2010,12,14,09,34,2.70
2010,12,14,09,35,2.70
2010,12,14,09,36,2.70
2010,12,14,09,37,2.70
2010,12,14,09,38,2.70
2010,12,14,09,39,2.70
2010,12,14,09,40,2.70
2010,12,14,09,41,2.70
2010,12,14,09,42,2.70
2010,12,14,09,43,2.70
2010,12,14,09,44,2.80
2010,12,14,09,45,2.80
2010,12,14,09,46,2.80
2010,12,14,09,47,2.80
2010,12,14,09,48,2.90
2010,12,14,09,49,2.80
2010,12,14,09,50,2.90
2010,12,14,09,51,2.90
2010,12,14,09,52,2.90
2010,12,14,09,53,2.90
2010,12,14,09,54,2.90
2010,12,14,09,55,3.00
2010,12,14,09,56,3.00
2010,12,14,09,57,3.00
2010,12,14,09,58,3.00
2010,12,14,09,59,3.10
2010,12,14,10,00,3.10
2010,12,14,10,01,3.10
2010,12,14,10,02,3.00
2010,12,14,10,03,3.00
2010,12,14,10,04,3.00
2010,12,14,10,05,2.90
2010,12,14,10,06,2.90
2010,12,14,10,07,2.90
2010,12,14,10,08,2.90
2010,12,14,10,09,2.90
2010,12,14,10,10,2.90
2010,12,14,10,11,2.90
2010,12,14,10,12,2.90
2010,12,14,10,13,2.90
2010,12,14,10,14,2.90
2010,12,14,10,15,2.90
2010,12,14,10,16,2.90
2010,12,14,10,17,2.90
2010,12,14,10,18,2.90
2010,12,14,10,19,2.90
2010,12,14,10,20,2.90
2010,12,14,10,21,2.90
2010,12,14,10,22,2.90
2010,12,14,10,23,3.00
2010,12,14,10,24,3.00
2010,12,14,10,25,3.00
2010,12,14,10,26,3.00
2010,12,14,10,27,3.00
2010,12,14,10,28,3.00
2010,12,14,10,29,3.00
2010,12,14,10,30,3.10
2010,12,14,10,31,3.10
2010,12,14,10,32,3.10
2010,12,14,10,33,3.20
2010,12,14,10,34,3.20
2010,12,14,10,35,3.20
2010,12,14,10,36,3.20
2010,12,14,10,37,3.20
2010,12,14,10,38,3.30
2010,12,14,10,39,3.30
2010,12,14,10,40,3.30
2010,12,14,10,41,3.30
2010,12,14,10,42,3.30
2010,12,14,10,43,3.30
2010,12,14,10,44,3.40
2010,12,14,10,45,3.40
2010,12,14,10,46,3.40
2010,12,14,10,47,3.40
2010,12,14,10,48,3.40
2010,12,14,10,49,3.40
2010,12,14,10,50,3.40
2010,12,14,10,51,3.50
2010,12,14,10,52,3.50
2010,12,14,10,53,3.50
2010,12,14,10,54,3.50
2010,12,14,10,55,3.50
2010,12,14,10,56,3.50
2010,12,14,10,57,3.60
2010,12,14,10,58,3.60
2010,12,14,10,59,3.60
2010,12,14,11,00,3.60
2010,12,14,11,01,3.60
2010,12,14,11,02,3.60
2010,12,14,11,03,3.60
2010,12,14,11,04,3.60
2010,12,14,11,05,3.60
2010,12,14,11,06,3.60
2010,12,14,11,07,3.60
2010,12,14,11,08,3.70
2010,12,14,11,09,3.70
2010,12,14,11,10,3.70
2010,12,14,11,11,3.70
2010,12,14,11,12,3.70
2010,12,14,11,13,3.70
2010,12,14,11,14,3.70
2010,12,14,11,15,3.70
2010,12,14,11,16,3.70
2010,12,14,11,17,3.70
2010,12,14,11,18,3.70
2010,12,14,11,19,3.70
2010,12,14,11,20,3.70
2010,12,14,11,21,3.70
2010,12,14,11,22,3.70
2010,12,14,11,23,3.70
2010,12,14,11,24,3.80
2010,12,14,11,25,3.80
2010,12,14,11,26,3.80
2010,12,14,11,27,3.80
2010,12,14,11,28,3.80
2010,12,14,11,29,3.80
2010,12,14,11,30,3.80
2010,12,14,11,31,3.80
2010,12,14,11,32,3.80
2010,12,14,11,33,3.80
2010,12,14,11,34,3.80
2010,12,14,11,35,3.80
2010,12,14,11,36,3.80
2010,12,14,11,37,3.80
2010,12,14,11,38,3.80
2010,12,14,11,39,3.80
2010,12,14,11,40,3.80
2010,12,14,11,41,3.80
2010,12,14,11,42,3.80
2010,12,14,11,43,3.80
2010,12,14,11,44,3.90
2010,12,14,11,45,3.90
2010,12,14,11,46,3.90
2010,12,14,11,47,3.90
2010,12,14,11,48,3.90
2010,12,14,11,49,3.90
2010,12,14,11,50,3.90
2010,12,14,11,51,3.90
2010,12,14,11,52,3.90
2010,12,14,11,53,3.90
2010,12,14,11,54,3.90
2010,12,14,11,55,3.90
2010,12,14,11,56,3.90
2010,12,14,11,57,3.90
2010,12,14,11,58,3.90
2010,12,14,11,59,3.90
2010,12,14,12,00,3.90
2010,12,14,12,01,3.90
2010,12,14,12,02,3.90
2010,12,14,12,03,3.90
2010,12,14,12,04,3.80
2010,12,14,12,05,3.80
2010,12,14,12,06,3.80
2010,12,14,12,07,3.80
2010,12,14,12,08,3.80
2010,12,14,12,09,3.80
2010,12,14,12,10,3.80
2010,12,14,12,11,3.80
2010,12,14,12,12,3.80
2010,12,14,12,13,3.80
2010,12,14,12,14,3.80
2010,12,14,12,15,3.80
2010,12,14,12,16,3.80
2010,12,14,12,17,3.70
2010,12,14,12,18,3.70
2010,12,14,12,19,3.70
2010,12,14,12,20,3.70
2010,12,14,12,21,3.70
2010,12,14,12,22,3.70
2010,12,14,12,23,3.70
2010,12,14,12,24,3.70
2010,12,14,12,25,3.60
2010,12,14,12,26,3.60
2010,12,14,12,27,3.60
2010,12,14,12,28,3.60
2010,12,14,12,29,3.60
2010,12,14,12,30,3.60
2010,12,14,12,31,3.60
2010,12,14,12,32,3.60
2010,12,14,12,33,3.60
2010,12,14,12,34,3.60
2010,12,14,12,35,3.60
2010,12,14,12,36,3.60
2010,12,14,12,37,3.60
2010,12,14,12,38,3.60
2010,12,14,12,39,3.60
2010,12,14,12,40,3.70
2010,12,14,12,41,3.60
2010,12,14,12,42,3.60
2010,12,14,12,43,3.60
2010,12,14,12,44,3.60
2010,12,14,12,45,3.60
2010,12,14,12,46,3.60
2010,12,14,12,47,3.60
2010,12,14,12,48,3.60
2010,12,14,12,49,3.60
2010,12,14,12,50,3.60
2010,12,14,12,51,3.60
2010,12,14,12,52,3.60
2010,12,14,12,53,3.60
2010,12,14,12,54,3.60
2010,12,14,12,55,3.60
2010,12,14,12,56,3.50
2010,12,14,12,57,3.50
2010,12,14,12,58,3.50
2010,12,14,12,59,3.50
2010,12,14,13,00,3.50
2010,12,14,13,01,3.50
2010,12,14,13,02,3.40
2010,12,14,13,03,3.50
2010,12,14,13,04,3.50
2010,12,14,13,05,3.50
2010,12,14,13,06,3.50
2010,12,14,13,07,3.50
2010,12,14,13,08,3.50
2010,12,14,13,09,3.50
2010,12,14,13,10,3.50
2010,12,14,13,11,3.50
2010,12,14,13,12,3.50
2010,12,14,13,13,3.50
2010,12,14,13,14,3.50
2010,12,14,13,15,3.50
2010,12,14,13,16,3.50
2010,12,14,13,17,3.50
2010,12,14,13,18,3.50
2010,12,14,13,19,3.50
2010,12,14,13,20,3.40
2010,12,14,13,21,3.40
2010,12,14,13,22,3.40
2010,12,14,13,23,3.40
2010,12,14,13,24,3.40
2010,12,14,13,25,3.40
2010,12,14,13,26,3.50
2010,12,14,13,27,3.50
2010,12,14,13,28,3.50
2010,12,14,13,29,3.50
2010,12,14,13,30,3.50
2010,12,14,13,31,3.50
2010,12,14,13,32,3.50
2010,12,14,13,33,3.50
2010,12,14,13,34,3.50
2010,12,14,13,35,3.50
2010,12,14,13,36,3.50
2010,12,14,13,37,3.50
2010,12,14,13,38,3.50
2010,12,14,13,39,3.60
2010,12,14,13,40,3.60
2010,12,14,13,41,3.60
2010,12,14,13,42,3.60
2010,12,14,13,43,3.60
2010,12,14,13,44,3.60
2010,12,14,13,45,3.60
2010,12,14,13,46,3.60
2010,12,14,13,47,3.60
2010,12,14,13,48,3.60
2010,12,14,13,49,3.60
2010,12,14,13,50,3.70
2010,12,14,13,51,3.70
2010,12,14,13,52,3.70
2010,12,14,13,53,3.70
2010,12,14,13,54,3.70
2010,12,14,13,55,3.70
2010,12,14,13,56,3.70
2010,12,14,13,57,3.70
2010,12,14,13,58,3.70
2010,12,14,13,59,3.70
2010,12,14,14,00,3.70
2010,12,14,14,01,3.70
2010,12,14,14,02,3.70
2010,12,14,14,03,3.70
2010,12,14,14,04,3.70
2010,12,14,14,05,3.70
2010,12,14,14,06,3.70
2010,12,14,14,07,3.70
2010,12,14,14,08,3.70
2010,12,14,14,09,3.70
2010,12,14,14,10,3.70
2010,12,14,14,11,3.80
2010,12,14,14,12,3.80
2010,12,14,14,13,3.80
2010,12,14,14,14,3.80
2010,12,14,14,15,3.80
2010,12,14,14,16,3.80
2010,12,14,14,17,3.80
2010,12,14,14,18,3.80
2010,12,14,14,19,3.70
2010,12,14,14,20,3.70
2010,12,14,14,21,3.70
2010,12,14,14,22,3.70
2010,12,14,14,23,3.70
2010,12,14,14,24,3.80
2010,12,14,14,25,3.80
2010,12,14,14,26,3.80
2010,12,14,14,27,3.80
2010,12,14,14,28,3.80
2010,12,14,14,29,3.80
2010,12,14,14,30,3.80
2010,12,14,14,31,3.80
2010,12,14,14,32,3.80
2010,12,14,14,33,3.80
2010,12,14,14,34,3.80
2010,12,14,14,35,3.80
2010,12,14,14,36,3.80
2010,12,14,14,37,3.80
2010,12,14,14,38,3.80
2010,12,14,14,39,3.80
2010,12,14,14,40,3.90
2010,12,14,14,41,3.80
2010,12,14,14,42,3.80
2010,12,14,14,43,3.80
2010,12,14,14,44,3.80
2010,12,14,14,45,3.90
2010,12,14,14,46,3.90
2010,12,14,14,47,3.90
2010,12,14,14,48,3.90
2010,12,14,14,49,4.00
2010,12,14,14,50,4.00
2010,12,14,14,51,4.00
2010,12,14,14,52,4.10
2010,12,14,14,53,4.10
2010,12,14,14,54,4.10
2010,12,14,14,55,4.10
2010,12,14,14,56,4.10
2010,12,14,14,57,4.10
2010,12,14,14,58,4.10
2010,12,14,14,59,4.00
2010,12,14,15,00,4.00
2010,12,14,15,01,4.00
2010,12,14,15,02,4.00
2010,12,14,15,03,3.90
2010,12,14,15,04,3.90
2010,12,14,15,05,3.90
2010,12,14,15,06,3.90
2010,12,14,15,07,3.80
2010,12,14,15,08,3.80
2010,12,14,15,09,3.80
2010,12,14,15,10,3.80
2010,12,14,15,11,3.80
2010,12,14,15,12,3.80
2010,12,14,15,13,3.80
2010,12,14,15,14,3.70
2010,12,14,15,15,3.70
2010,12,14,15,16,3.70
2010,12,14,15,17,3.70
2010,12,14,15,18,3.70
2010,12,14,15,19,3.70
2010,12,14,15,20,3.70
2010,12,14,15,21,3.70
2010,12,14,15,22,3.70
2010,12,14,15,23,3.60
2010,12,14,15,24,3.60
2010,12,14,15,25,3.60
2010,12,14,15,26,3.60
2010,12,14,15,27,3.60
2010,12,14,15,28,3.60
2010,12,14,15,29,3.60
2010,12,14,15,30,3.50
2010,12,14,15,31,3.50
2010,12,14,15,32,3.50
2010,12,14,15,33,3.50
2010,12,14,15,34,3.50
2010,12,14,15,35,3.50
2010,12,14,15,36,3.50
2010,12,14,15,37,3.60
2010,12,14,15,38,3.60
2010,12,14,15,39,3.60
2010,12,14,15,40,3.60
2010,12,14,15,41,3.60
2010,12,14,15,42,3.60
2010,12,14,15,43,3.60
2010,12,14,15,44,3.60
2010,12,14,15,45,3.60
2010,12,14,15,46,3.60
2010,12,14,15,47,3.60
2010,12,14,15,48,3.60
2010,12,14,15,49,3.60
2010,12,14,15,50,3.60
2010,12,14,15,51,3.60
2010,12,14,15,52,3.60
2010,12,14,15,53,3.60
2010,12,14,15,54,3.60
2010,12,14,15,55,3.60
2010,12,14,15,56,3.60
2010,12,14,15,57,3.60
2010,12,14,15,58,3.50
2010,12,14,15,59,3.60
2010,12,14,16,00,3.50
2010,12,14,16,01,3.60
2010,12,14,16,02,3.50
2010,12,14,16,03,3.50
2010,12,14,16,04,3.60
2010,12,14,16,05,3.60
2010,12,14,16,06,3.60
2010,12,14,16,07,3.60
2010,12,14,16,08,3.60
2010,12,14,16,09,3.60
2010,12,14,16,10,3.70
2010,12,14,16,11,3.70
2010,12,14,16,12,3.70
2010,12,14,16,13,3.70
2010,12,14,16,14,3.70
2010,12,14,16,15,3.70
2010,12,14,16,16,3.70
2010,12,14,16,17,3.70
2010,12,14,16,18,3.60
2010,12,14,16,19,3.50
2010,12,14,16,20,3.50
2010,12,14,16,21,3.40
2010,12,14,16,22,3.40
2010,12,14,16,23,3.50
2010,12,14,16,24,3.50
2010,12,14,16,25,3.40
2010,12,14,16,26,3.40
2010,12,14,16,27,3.40
2010,12,14,16,28,3.40
2010,12,14,16,29,3.40
2010,12,14,16,30,3.40
2010,12,14,16,31,3.40
2010,12,14,16,32,3.40
2010,12,14,16,33,3.40
2010,12,14,16,34,3.40
2010,12,14,16,35,3.30
2010,12,14,16,36,3.30
2010,12,14,16,37,3.30
2010,12,14,16,38,3.30
2010,12,14,16,39,3.30
2010,12,14,16,40,3.20
2010,12,14,16,41,3.20
2010,12,14,16,42,3.10
2010,12,14,16,43,3.10
2010,12,14,16,44,3.10
2010,12,14,16,45,3.10
2010,12,14,16,46,3.10
2010,12,14,16,47,3.10
2010,12,14,16,48,3.10
2010,12,14,16,49,3.10
2010,12,14,16,50,3.10
2010,12,14,16,51,3.10
2010,12,14,16,52,3.10
2010,12,14,16,53,3.10
2010,12,14,16,54,3.10
2010,12,14,16,55,3.10
2010,12,14,16,56,3.10
2010,12,14,16,57,3.10
2010,12,14,16,58,3.10
2010,12,14,16,59,3.10
2010,12,14,17,00,3.10
2010,12,14,17,01,3.10
2010,12,14,17,02,3.10
2010,12,14,17,03,3.10
2010,12,14,17,04,3.10
2010,12,14,17,05,3.10
2010,12,14,17,06,3.10
2010,12,14,17,07,3.10
2010,12,14,17,08,3.00
2010,12,14,17,09,3.00
2010,12,14,17,10,3.00
2010,12,14,17,11,3.00
2010,12,14,17,12,3.10
2010,12,14,17,13,3.10
2010,12,14,17,14,3.10
2010,12,14,17,15,3.10
2010,12,14,17,16,3.10
2010,12,14,17,17,3.20
2010,12,14,17,18,3.10
2010,12,14,17,19,3.20
2010,12,14,17,20,3.20
2010,12,14,17,21,3.20
2010,12,14,17,22,3.20
2010,12,14,17,23,3.10
2010,12,14,17,24,3.10
2010,12,14,17,25,3.10
2010,12,14,17,26,3.00
2010,12,14,17,27,3.10
2010,12,14,17,28,3.10
2010,12,14,17,29,3.10
2010,12,14,17,30,3.10
2010,12,14,17,31,3.10
2010,12,14,17,32,3.00
2010,12,14,17,33,3.00
2010,12,14,17,34,3.00
2010,12,14,17,35,3.00
2010,12,14,17,36,3.00
2010,12,14,17,37,3.00
2010,12,14,17,38,3.00
2010,12,14,17,39,2.90
2010,12,14,17,40,2.90
2010,12,14,17,41,2.90
2010,12,14,17,42,2.90
2010,12,14,17,43,2.90
2010,12,14,17,44,2.90
2010,12,14,17,45,2.90
2010,12,14,17,46,2.80
2010,12,14,17,47,2.80
2010,12,14,17,48,2.80
2010,12,14,17,49,2.80
2010,12,14,17,50,2.90
2010,12,14,17,51,2.90
2010,12,14,17,52,2.90
2010,12,14,17,53,2.90
2010,12,14,17,54,2.90
2010,12,14,17,55,2.90
2010,12,14,17,56,2.90
2010,12,14,17,57,2.90
2010,12,14,17,58,2.90
2010,12,14,17,59,2.90
2010,12,14,18,00,2.90
2010,12,14,18,01,2.90
2010,12,14,18,02,2.90
2010,12,14,18,03,2.90
2010,12,14,18,04,2.90
2010,12,14,18,05,2.90
2010,12,14,18,06,2.80